Wind_Speed
14 13 12 12 12 11 11 10 10 11 12 11 10 9 9 8 9 11 12 13 14 15 16 16 15 15 14 11 8 7 6 5 5 4 4 4 5 7 9 10 11 11 12 12
16 15 15 14 13 13 13 12 12 14 15 14 12 12 11 10 10 11 12 14 15 15 16 17 16 15 12 10 8 6 5 5 4 4 3 2 3 6 7 10 10 10 11 12
18 18 17 16 15 14 14 14 15 16 17 16 15 14 13 12 12 12 13 14 15 15 15 15 14 13 12 10 8 6 5 5 4 4 3 3 3 4 6 9 10 11 11 11
21 20 19 17 16 15 15 16 17 17 17 17 17 15 14 13 14 14 14 14 13 14 15 15 15 13 12 10 8 6 6 5 5 4 5 5 4 5 5 7 9 11 12 13
22 22 20 18 17 17 16 17 17 18 18 17 17 17 14 14 14 13 13 13 13 13 14 15 14 13 12 9 7 7 6 5 5 5 5 5 5 6 6 7 9 11 12 13
23 23 21 19 19 18 17 18 18 18 18 18 18 17 15 14 13 12 12 13 14 14 15 15 14 13 12 10 8 7 7 6 5 5 6 5 6 6 6 7 8 10 11 13
25 24 22 21 21 20 19 19 19 19 18 18 18 17 16 14 13 11 11 12 13 13 14 15 13 12 12 10 9 7 7 8 7 7 7 6 6 6 6 7 8 9 11 12
26 25 24 23 22 22 21 20 20 19 18 18 18 17 15 14 13 12 12 12 11 12 13 13 12 12 11 9 9 8 8 8 8 8 8 6 6 7 8 8 9 10 11 12
27 26 26 25 24 24 22 21 21 20 19 18 17 16 14 14 13 13 12 11 11 12 13 13 11 10 9 9 9 8 8 8 8 8 7 7 7 8 9 9 10 11 11 13
29 28 27 27 26 25 24 22 21 20 19 19 18 16 14 14 13 12 11 11 11 12 12 12 11 9 8 8 8 9 9 9 8 8 8 8 8 9 9 10 10 10 12 13
32 31 29 29 28 26 25 23 22 21 20 19 18 16 14 13 13 13 12 11 11 11 12 13 10 8 8 8 8 9 10 9 9 8 8 8 9 10 10 11 12 12 13 13
33 33 32 31 29 29 27 25 24 22 20 19 19 15 14 14 14 13 12 11 11 11 11 11 10 8 8 9 9 10 10 9 8 8 8 9 10 10 11 12 13 13 13 14
35 35 33 32 32 30 27 26 24 23 22 21 19 16 14 15 14 14 13 11 10 11 12 12 11 9 9 9 9 9 9 9 9 9 9 10 11 11 12 12 12 13 14 14
35 35 33 32 29 28 27 26 25 24 23 21 19 17 15 14 14 14 13 12 11 12 13 12 11 11 10 10 10 10 10 9 9 9 9 10 10 11 12 13 13 13 14 14
36 35 32 31 30 30 29 27 26 26 24 23 20 18 16 14 14 14 13 12 12 13 13 13 12 12 12 11 11 10 10 10 10 10 10 10 11 11 12 13 13 13 14 14
37 35 33 31 30 31 31 30 28 27 26 25 22 20 17 15 14 14 14 13 13 14 14 14 14 13 13 12 12 11 11 11 12 11 11 11 12 12 13 13 14 14 15 15
38 36 34 33 31 31 33 31 30 28 27 26 24 21 19 17 16 15 15 15 15 16 16 16 16 14 13 14 14 13 13 13 13 13 13 13 13 14 14 13 14 14 14 14
39 38 36 35 33 35 31 29 30 29 28 27 26 24 22 21 19 18 17 17 17 17 17 16 16 15 15 15 14 14 14 14 14 14 14 14 14 15 14 14 14 14 14 15
42 41 39 38 36 35 33 31 29 29 28 27 27 25 24 24 23 21 20 19 19 19 18 17 16 16 16 16 16 16 16 16 16 15 15 15 15 15 16 16 15 15 16 17
46 45 43 42 39 38 34 32 32 30 30 28 28 28 27 26 24 23 22 22 21 21 20 18 18 18 18 17 17 17 17 17 17 17 17 17 17 17 17 17 17 17 17 18
49 48 47 45 44 42 38 36 34 34 31 29 29 29 28 27 26 24 23 23 23 22 21 20 20 19 19 19 18 18 18 18 17 17 18 18 18 19 18 18 18 19 19 19
50 50 50 48 47 46 43 40 38 36 34 32 30 29 28 27 27 26 25 25 25 24 23 23 22 22 20 20 20 20 20 19 19 19 19 20 20 20 19 20 20 20 20 20
52 52 52 51 49 47 45 43 41 39 37 34 32 31 29 29 29 28 28 27 27 26 26 25 25 24 22 22 22 21 21 21 20 20 21 21 21 21 22 22 21 22 22 22
51 53 53 52 51 49 48 46 44 42 40 37 34 32 31 31 31 30 30 29 29 28 28 28 27 25 23 22 22 22 21 21 21 21 22 22 22 23 23 23 23 23 23 23
50 51 52 52 52 50 49 47 46 44 41 38 36 33 32 32 32 31 31 31 31 30 28 27 27 26 25 25 24 24 23 23 23 23 23 24 24 24 23 24 24 24 24 24
49 49 50 51 51 51 49 47 46 44 42 40 38 36 34 32 32 32 32 32 31 30 30 29 28 27 27 26 26 25 25 25 25 25 25 25 25 24 25 25 24 24 24 24
Wind_Direction
242 246 250 252 255 261 267 269 266 268 276 285 292 298 304 312 318 331 338 340 343 343 340 338 339 341 339 337 324 316 314 313 309 301 277 252 239 240 235 234 231 233 232 228
242 244 248 252 255 258 263 262 260 264 274 281 288 295 300 303 309 324 331 336 337 337 338 338 340 339 339 337 329 320 308 304 310 326 307 273 256 256 242 239 235 236 234 231
241 243 248 252 254 258 260 258 259 262 272 281 287 291 295 301 309 317 323 329 332 335 335 336 337 336 337 332 323 312 304 296 305 320 317 301 278 274 247 237 233 230 233 235
241 245 247 250 253 255 255 258 260 264 269 276 286 291 295 299 303 311 315 321 325 334 335 335 335 332 331 325 316 309 304 295 288 290 285 287 280 282 261 244 237 233 233 234
239 243 245 246 249 252 254 260 264 267 271 276 283 289 297 299 304 308 311 317 320 327 333 333 333 329 325 320 317 309 306 293 286 278 276 279 274 274 261 248 240 236 231 233
237 240 241 241 246 252 255 261 266 269 273 274 280 285 293 298 306 306 305 310 314 322 328 329 329 327 324 318 313 304 305 296 289 277 272 273 271 270 266 258 248 245 240 238
236 239 239 240 245 251 254 258 264 268 271 274 278 282 289 293 299 301 301 305 312 321 326 329 328 325 323 319 313 301 298 293 289 278 276 270 270 270 263 264 258 248 246 243
235 236 238 239 242 248 252 256 261 267 270 271 274 279 286 291 293 296 303 307 312 320 321 325 328 324 323 320 316 308 294 292 288 283 281 274 272 272 265 265 263 254 252 250
233 233 235 237 238 243 250 255 259 263 268 270 273 280 285 292 297 297 302 305 313 317 324 325 327 322 320 316 316 318 308 298 286 282 281 274 274 276 272 271 268 261 258 256
231 231 232 235 238 241 244 249 255 262 266 270 274 281 289 292 297 302 304 305 310 317 325 323 322 323 319 318 318 316 315 306 296 282 273 272 276 278 277 274 270 265 260 258
232 231 229 233 236 240 242 246 252 259 265 271 275 282 287 291 293 298 303 309 316 325 329 330 323 319 319 319 320 319 319 314 302 287 279 277 278 280 276 276 271 267 262 261
234 233 230 232 235 237 241 246 250 255 264 271 276 281 284 287 291 295 299 307 317 325 330 333 332 325 323 321 321 318 319 312 311 299 284 280 281 280 278 278 275 272 269 264
233 235 232 230 234 237 242 247 251 256 261 268 274 282 283 286 288 291 294 306 314 324 328 327 327 328 320 317 314 313 316 313 312 308 297 290 287 283 283 282 281 277 271 269
233 236 236 235 236 239 242 246 251 255 260 267 273 280 284 286 287 287 292 302 308 317 322 320 321 323 319 313 308 305 307 308 307 305 300 296 292 287 284 282 280 278 272 268
233 236 236 233 230 232 237 241 245 251 258 264 270 276 284 284 283 284 288 297 306 314 317 316 317 318 318 312 307 305 305 303 302 302 300 296 292 289 288 285 280 278 273 271
233 236 236 235 232 232 235 239 243 248 254 261 267 273 278 281 281 282 290 297 303 311 314 317 318 316 314 308 304 302 304 301 298 297 297 294 292 290 290 290 284 280 276 274
235 237 237 237 235 235 236 238 243 248 253 258 264 269 273 278 283 284 290 295 299 305 308 309 313 310 309 305 301 300 298 297 297 297 295 294 293 291 290 289 288 286 281 279
236 238 239 240 239 240 241 240 244 248 252 256 262 266 268 273 277 281 286 291 296 300 306 308 308 307 306 304 300 299 299 296 295 294 294 294 295 294 290 288 286 286 285 282
233 237 240 242 243 245 245 244 246 249 252 256 260 264 266 269 273 278 282 284 288 294 300 303 303 302 304 301 299 299 298 297 295 294 294 294 294 294 291 287 285 285 285 282
232 235 239 243 245 247 247 249 250 252 254 256 261 264 265 268 271 277 278 278 280 286 291 294 297 298 298 299 297 298 296 297 296 294 293 292 290 290 290 289 286 285 285 286
231 233 237 241 245 248 249 251 253 254 256 258 262 264 266 267 269 271 273 274 277 281 285 289 291 291 293 296 295 295 294 294 294 293 292 291 291 289 287 287 286 285 285 288
231 233 235 239 243 247 249 252 254 257 258 259 261 263 264 264 264 266 270 274 275 277 282 284 286 288 289 291 293 292 291 289 291 292 292 291 290 290 288 286 285 284 284 284
232 233 235 238 242 246 248 251 254 256 258 259 261 261 260 260 261 263 266 269 271 274 278 279 283 284 285 287 287 288 288 286 288 290 291 290 289 288 288 286 283 283 283 282
233 234 236 238 240 243 247 250 253 255 258 259 259 259 259 259 259 261 263 264 267 271 273 274 279 281 282 284 285 288 289 288 289 289 289 289 287 286 286 285 283 281 281 281
234 235 237 239 240 243 245 249 252 254 257 259 258 259 260 258 258 259 260 263 267 270 270 272 276 281 282 283 286 286 287 288 289 289 288 288 287 285 285 284 283 281 280 280
235 236 237 238 240 242 244 247 250 253 255 257 258 259 258 256 256 256 260 261 265 268 270 272 274 278 280 281 282 283 284 286 288 287 287 287 286 286 285 284 281 279 279 279
Height
5900 5903 5903 5903 5904 5905 5905 5906 5906 5906 5905 5905 5905 5905 5905 5904 5904 5903 5901 5899 5898 5896 5894 5891 5888 5886 5883 5881 5880 5880 5879 5878 5877 5877 5877 5877 5878 5878 5880 5881 5883 5884 5886 5887
5899 5900 5900 5901 5902 5903 5904 5904 5904 5904 5903 5904 5903 5904 5904 5903 5902 5901 5900 5898 5896 5894 5892 5890 5888 5885 5883 5881 5880 5879 5878 5878 5876 5876 5875 5876 5877 5877 5878 5880 5881 5883 5884 5885
5895 5897 5897 5899 5900 5901 5902 5902 5902 5902 5901 5901 5902 5902 5902 5901 5900 5900 5898 5896 5894 5892 5891 5889 5886 5884 5882 5881 5879 5879 5878 5877 5876 5876 5875 5875 5875 5876 5877 5878 5879 5880 5882 5884
5890 5892 5894 5896 5897 5898 5899 5899 5899 5899 5899 5899 5900 5900 5900 5899 5898 5898 5897 5895 5893 5892 5889 5887 5884 5883 5881 5880 5879 5878 5877 5876 5876 5875 5875 5874 5874 5874 5875 5876 5877 5878 5880 5881
5887 5889 5891 5893 5894 5895 5896 5896 5897 5897 5897 5897 5897 5897 5898 5897 5896 5896 5895 5893 5892 5890 5888 5885 5883 5881 5880 5878 5878 5877 5876 5875 5875 5874 5874 5873 5873 5873 5874 5874 5875 5876 5877 5879
5883 5884 5887 5889 5890 5892 5893 5894 5894 5894 5895 5895 5895 5895 5896 5895 5894 5893 5893 5892 5890 5888 5886 5884 5882 5880 5878 5877 5876 5875 5874 5874 5873 5872 5872 5872 5872 5872 5872 5872 5873 5874 5875 5876
5879 5881 5883 5885 5887 5888 5890 5891 5892 5892 5892 5893 5893 5892 5893 5892 5892 5891 5890 5889 5888 5887 5885 5882 5880 5878 5877 5875 5874 5873 5872 5872 5871 5870 5870 5870 5870 5870 5870 5870 5871 5872 5873 5873
5874 5877 5879 5881 5883 5884 5885 5887 5889 5889 5889 5890 5889 5890 5891 5890 5890 5889 5888 5887 5886 5885 5883 5881 5879 5877 5875 5874 5873 5871 5870 5869 5869 5869 5869 5868 5868 5868 5869 5869 5869 5869 5870 5871
5869 5872 5874 5877 5879 5880 5881 5883 5884 5885 5885 5886 5887 5887 5888 5888 5887 5887 5886 5885 5884 5882 5880 5879 5877 5875 5873 5872 5871 5870 5869 5867 5867 5867 5867 5867 5867 5867 5867 5867 5867 5867 5868 5868
5862 5866 5869 5871 5874 5875 5878 5879 5880 5881 5882 5883 5884 5884 5886 5885 5885 5884 5884 5883 5881 5880 5878 5876 5874 5872 5871 5870 5870 5869 5868 5866 5865 5865 5865 5865 5865 5865 5865 5865 5864 5864 5865 5865
5856 5860 5864 5866 5868 5871 5873 5875 5876 5877 5878 5880 5880 5884 5883 5882 5882 5882 5881 5881 5879 5878 5876 5874 5872 5870 5869 5869 5868 5868 5866 5864 5863 5863 5863 5863 5864 5863 5863 5862 5862 5862 5862 5862
5850 5853 5857 5861 5863 5865 5867 5870 5872 5874 5875 5876 5877 5882 5879 5879 5879 5879 5879 5878 5877 5876 5874 5873 5871 5869 5868 5868 5867 5866 5865 5863 5862 5861 5861 5861 5861 5861 5860 5860 5859 5859 5859 5859
5843 5847 5852 5855 5859 5861 5863 5866 5868 5870 5871 5872 5873 5878 5876 5876 5876 5876 5876 5876 5875 5874 5872 5871 5870 5868 5867 5866 5866 5865 5863 5862 5861 5860 5859 5859 5858 5858 5858 5857 5856 5856 5856 5856
5837 5840 5846 5851 5855 5857 5859 5861 5863 5865 5867 5868 5870 5872 5873 5872 5872 5873 5873 5873 5872 5872 5870 5869 5868 5867 5866 5865 5864 5863 5862 5860 5859 5858 5857 5857 5856 5855 5855 5854 5853 5852 5852 5852
5830 5835 5839 5845 5848 5850 5853 5855 5858 5860 5862 5864 5866 5868 5869 5869 5869 5869 5870 5870 5869 5869 5868 5866 5865 5864 5863 5862 5861 5860 5859 5858 5857 5856 5855 5854 5853 5852 5851 5850 5849 5849 5849 5849
5824 5829 5833 5838 5842 5844 5847 5850 5852 5855 5857 5859 5861 5864 5865 5865 5865 5866 5866 5866 5866 5866 5865 5864 5863 5861 5861 5860 5859 5858 5857 5856 5854 5853 5852 5851 5850 5849 5848 5847 5846 5845 5845 5845
5817 5822 5827 5831 5836 5838 5840 5845 5847 5850 5852 5855 5857 5860 5861 5862 5862 5863 5863 5863 5863 5863 5862 5861 5860 5859 5858 5857 5856 5855 5854 5852 5851 5850 5849 5848 5847 5845 5844 5843 5842 5841 5841 5840
5810 5815 5819 5824 5829 5831 5838 5840 5842 5845 5847 5850 5852 5854 5856 5857 5858 5859 5859 5859 5859 5859 5858 5857 5856 5855 5855 5854 5853 5851 5850 5849 5848 5847 5846 5845 5843 5842 5841 5839 5838 5838 5837 5837
5803 5808 5812 5816 5820 5824 5829 5833 5837 5839 5842 5844 5846 5848 5850 5852 5853 5854 5855 5855 5855 5855 5854 5853 5852 5851 5851 5850 5849 5848 5846 5845 5844 5843 5842 5841 5839 5838 5837 5835 5834 5834 5833 5833
5795 5800 5804 5808 5812 5816 5823 5827 5830 5834 5835 5839 5840 5842 5844 5846 5847 5849 5849 5850 5850 5849 5849 5849 5848 5847 5846 5845 5844 5843 5842 5841 5840 5838 5837 5836 5835 5834 5832 5831 5830 5829 5829 5828
5786 5791 5795 5800 5804 5809 5815 5819 5823 5827 5830 5832 5834 5835 5837 5839 5842 5843 5843 5843 5843 5843 5843 5843 5842 5842 5841 5840 5839 5838 5837 5836 5835 5834 5832 5831 5830 5829 5828 5826 5825 5824 5824 5823
5776 5781 5786 5791 5796 5802 5806 5811 5815 5818 5821 5824 5827 5829 5831 5833 5834 5836 5837 5837 5837 5837 5837 5837 5836 5836 5835 5834 5834 5833 5831 5831 5830 5829 5827 5826 5825 5823 5822 5821 5820 5819 5818 5817
5765 5772 5777 5783 5789 5793 5798 5802 5806 5809 5812 5816 5819 5821 5823 5825 5827 5828 5829 5830 5830 5830 5830 5830 5830 5829 5829 5828 5828 5827 5826 5825 5824 5823 5821 5820 5819 5817 5816 5815 5814 5813 5812 5811
5755 5761 5767 5773 5778 5783 5788 5792 5796 5800 5804 5807 5810 5813 5816 5817 5819 5820 5821 5822 5823 5823 5823 5823 5823 5823 5822 5822 5821 5821 5819 5818 5818 5816 5815 5814 5812 5811 5810 5809 5808 5807 5806 5805
5745 5751 5756 5762 5768 5773 5778 5783 5787 5791 5795 5798 5802 5805 5807 5809 5810 5812 5813 5814 5815 5815 5816 5816 5816 5816 5816 5815 5814 5814 5813 5812 5811 5810 5808 5807 5806 5804 5803 5802 5801 5800 5799 5798
5735 5741 5747 5752 5758 5763 5769 5773 5777 5781 5785 5789 5792 5795 5798 5800 5801 5803 5804 5805 5806 5807 5808 5808 5809 5809 5808 5808 5807 5807 5806 5805 5804 5803 5801 5800 5799 5798 5796 5795 5794 5793 5792 5791